[[{"header":{"parameterUnit":"m.s-1","parameterCategory":1,"la1":30.2991,"la2":30.254,"lo1":-89.0895,"lo2":-89.0444,"dy":0.0017,"dx":0.0017,"nx":28,"ny":28,"refTime":"2025-08-27T09:00:00:Z","depth":0,"parameterNumber":2,"parameterNumberName":"U-component_of_WINDS"},"data":[0,0,0,0,0,0,0,0,0,0,0,0,0,0,0,0,0,0,0,0,0,0,0,0,0,0,0,0,0,0,0,0,0,0,0,0,0,0,0,0,0,0,0,0,0,0,0,0,0,0,0,0,0,0,0,0,0,0,-2.3525,-2.3525,0,-2.3553,-2.3553,-2.3553,-2.3456,-2.3453,-2.3451,-2.3448,-2.3478,-2.3481,-2.3485,0,0,0,0,0,0,0,0,0,0,0,0,0,-2.3388,-2.3391,-2.3525,-2.3525,-2.3526,-2.3553,-2.3553,-2.3554,-2.3457,-2.3453,-2.345,-2.3446,-2.3477,-2.3481,-2.3485,0,0,0,0,0,0,0,0,0,0,0,0,0,-2.3435,-2.3392,-2.3525,-2.3481,-2.3477,-2.3553,-2.3553,-2.3554,-2.3458,-2.3453,-2.3449,-2.3445,-2.3475,-2.348,-2.3486,-2.3606,0,0,-2.3502,-2.3504,0,0,0,0,0,0,0,0,-2.3432,-2.344,-2.3487,-2.3484,-2.348,-2.3497,-2.3516,-2.3571,-2.3459,-2.3465,-2.3448,-2.3443,-2.3488,-2.3492,-2.3507,-2.3607,-2.3609,-2.3502,-2.3505,-2.3508,-2.3509,0,0,0,0,0,0,0,-2.3429,-2.3438,-2.3536,-2.3487,-2.3483,-2.3459,-2.3461,-2.3526,-2.3501,-2.3464,-2.3457,-2.3462,-2.3485,-2.3502,-2.3507,-2.3609,-2.3502,-2.3507,-2.351,-2.3512,-2.3809,-2.3813,0,0,0,0,0,0,-2.3431,-2.3436,-2.3535,-2.3537,-2.3445,-2.3465,-2.3467,-2.3496,-2.35,-2.3496,-2.3465,-2.3457,-2.3495,-2.3501,-2.3507,-2.3648,-2.3508,-2.3513,-2.3516,-2.3804,-2.381,-2.3815,0,0,0,0,0,0,-2.3429,-2.3441,-2.3534,-2.3484,-2.3494,-2.3472,-2.3505,-2.3499,-2.3515,-2.3501,-2.3496,-2.3487,-2.3492,-2.35,-2.3582,-2.3648,-2.3515,-2.352,-2.3799,-2.3806,-2.3812,-2.3931,0,0,0,0,0,0,-2.3425,-2.3441,-2.3486,-2.3486,-2.3497,-2.3608,-2.3509,-2.3502,-2.3524,-2.3514,-2.352,-2.3517,-2.3489,-2.3574,-2.3587,-2.3653,-2.3524,-2.3793,-2.3802,-2.381,-2.3921,-2.3941,-2.3959,0,0,0,0,0,-2.3421,-2.3519,-2.3489,-2.3502,-2.3554,-2.3612,-2.3619,-2.3585,-2.353,-2.3576,-2.3566,-2.3516,-2.3638,-2.3584,-2.3597,-2.3665,-2.3788,-2.3799,-2.3809,-2.3913,-2.3937,-2.3958,0,0,0,0,0,0,-2.3528,-2.3518,-2.3485,-2.3586,-2.3601,-2.3596,-2.3652,-2.3612,-2.3642,-2.3631,-2.3588,-2.359,-2.368,-2.368,-2.362,-2.3781,-2.3704,-2.3718,-2.3778,-2.3801,-2.382,-2.3818,-2.3528,0,0,0,0,0,-2.3564,-2.3612,-2.36,-2.3691,-2.37,-2.3675,-2.3699,-2.3671,-2.3685,-2.3691,-2.3687,-2.3702,-2.3744,-2.3772,-2.381,-2.392,-2.392,-2.3974,-2.3992,-2.4008,-2.4021,-2.4079,-2.4102,-2.385,-2.385,-2.3849,0,0,-2.3638,-2.3638,-2.3671,-2.3712,-2.372,-2.3771,-2.3681,-2.3739,-2.3776,-2.37,-2.3777,-2.3775,-2.3789,-2.3885,-2.3928,-2.3889,-2.409,-2.4021,-2.4034,-2.4038,-2.4092,-2.4116,-2.4137,-2.3857,-2.3856,-2.3855,0,0,-2.3798,-2.3804,-2.3879,-2.3889,-2.3902,-2.3884,-2.3903,-2.3904,-2.3899,-2.3976,-2.3919,-2.3963,-2.4035,-2.4048,-2.4063,-2.4227,-2.4183,-2.4241,-2.4339,-2.4396,-2.4416,-2.4434,-2.4492,-2.4514,-2.4253,-2.4254,-2.4254,0,-2.3889,-2.3963,-2.3923,-2.3985,-2.4005,-2.3937,-2.4013,-2.4024,-2.4049,-2.4065,-2.402,-2.4109,-2.4114,-2.4212,-2.4252,-2.4267,-2.4287,-2.4241,-2.4416,-2.4433,-2.4449,-2.4505,-2.4527,-2.4261,-2.426,-2.4259,-2.4258,0,-2.4074,-2.4126,-2.4185,-2.4211,-2.4237,-2.4306,-2.4276,-2.4308,-2.4277,-2.4265,-2.4343,-2.4346,-2.4383,-2.4404,-2.4375,-2.4498,-2.4474,-2.4424,-2.4345,-2.4481,-2.4532,-2.4553,-2.4271,-2.4268,-2.4266,-2.4264,0,0,-2.4304,-2.4306,-2.4328,-2.4339,-2.4347,-2.4387,-2.4452,-2.4488,-2.4516,-2.4535,-2.4588,-2.4651,-2.4604,-2.4622,-2.4594,-2.4644,-2.4774,-2.4587,-2.4587,-2.4622,-2.491,-2.4948,-2.4973,-2.4744,-2.4747,-2.4751,-2.4909,0,-2.4462,-2.4574,-2.454,-2.4653,-2.47,-2.4636,-2.4693,-2.4704,-2.4694,-2.4733,-2.4721,-2.4766,-2.4701,-2.4711,-2.4758,-2.4748,-2.4831,-2.4736,-2.4794,-2.4796,-2.4793,-2.5,-2.5041,-2.519,-2.4929,-2.4932,-2.4934,0,-2.4662,-2.4689,-2.4807,-2.4806,-2.4825,-2.4877,-2.4906,-2.4944,-2.4956,-2.4944,-2.4964,-2.4925,-2.4989,-2.4909,-2.4997,-2.4933,-2.4954,-2.4953,-2.4957,-2.4962,-2.4874,-2.5011,-2.5237,-2.5259,-2.4966,-2.4963,-2.4961,0,-2.4819,-2.4884,-2.4963,-2.4974,-2.4976,-2.5014,-2.5016,-2.5023,-2.5046,-2.5072,-2.5086,-2.5119,-2.5137,-2.5163,-2.5134,-2.5079,-2.5226,-2.5144,-2.5219,-2.522,-2.5254,-2.5252,-2.5487,-2.5267,-2.5266,-2.5266,-2.5265,0,-2.5,-2.5075,-2.5033,-2.5082,-2.5163,-2.5123,-2.5204,-2.5199,-2.5206,-2.5252,-2.5198,-2.5243,-2.5201,-2.5242,-2.5219,-2.5295,-2.5304,-2.5296,-2.529,-2.5302,-2.5303,-2.5316,-2.5305,-2.5272,-2.527,-2.5269,-2.5268,0,-2.519,-2.5165,-2.5246,-2.5241,-2.5242,-2.5302,-2.5297,-2.5342,-2.5327,-2.5386,-2.5398,-2.5375,-2.542,-2.5393,-2.5439,-2.5423,-2.5522,-2.5501,-2.5519,-2.5513,-2.559,-2.5583,-2.5841,-2.5873,-2.5632,-2.5635,-2.5637,0,-2.5307,-2.5363,-2.5364,-2.5391,-2.5397,-2.5441,-2.5464,-2.5426,-2.5452,-2.5469,-2.5511,-2.5552,-2.5582,-2.5657,-2.5644,-2.5679,-2.5658,-2.5746,-2.5663,-2.5673,-2.566,-2.5657,-2.5663,-2.5764,-2.5766,-2.5769,-2.5771,0,-2.5518,-2.5503,-2.5538,-2.557,-2.5599,-2.5622,-2.564,-2.5665,-2.5627,-2.5659,-2.5704,-2.5728,-2.5774,-2.5815,-2.5844,-2.5846,-2.5803,-2.5797,-2.5816,-2.5829,-2.5837,-2.5834,-2.5565,-2.5791,-2.5789,-2.5788,-2.5786,-2.5786,-2.5676,-2.5722,-2.573,-2.5771,-2.578,-2.5798,-2.584,-2.583,-2.5867,-2.5901,-2.5876,-2.593,-2.5939,-2.5973,-2.5981,-2.6022,-2.5987,-2.6015,-2.6022,-2.6029,-2.604,-2.583,-2.6027,-2.6027,-2.6026,-2.6026,-2.6025,0,-2.5884,-2.5885,-2.5924,-2.5951,-2.5983,-2.5938,-2.5956,-2.5986,-2.6033,-2.6045,-2.6076,-2.6128,-2.6166,-2.6157,-2.6191,-2.6226,-2.6207,-2.6237,-2.6234,-2.6235,-2.607,-2.605,-2.6252,-2.6252,-2.6252,-2.6251,-2.6251,-2.6251,-2.5996,-2.6072,-2.6058,-2.6138,-2.6138,-2.619,-2.6204,-2.6221,-2.623,-2.629,-2.6322,-2.6315,-2.6318,-2.6352,-2.6386,-2.6382,-2.6397,-2.6435,-2.6424,-2.6269,-2.6247,-2.6226,-2.6207,-2.6438,-2.6438,-2.6585,-2.6587,-2.6588]},{"header":{"parameterUnit":"m.s-1","parameterCategory":1,"la1":30.2991,"la2":30.254,"lo1":-89.0895,"lo2":-89.0444,"dy":0.0017,"dx":0.0017,"nx":28,"ny":28,"refTime":"2025-08-27T09:00:00:Z","depth":0,"parameterNumber":3,"parameterNumberName":"V-component_of_WINDS"},"data":[0,0,0,0,0,0,0,0,0,0,0,0,0,0,0,0,0,0,0,0,0,0,0,0,0,0,0,0,0,0,0,0,0,0,0,0,0,0,0,0,0,0,0,0,0,0,0,0,0,0,0,0,0,0,0,0,0,0,-4.3992,-4.3992,0,-4.4055,-4.4056,-4.4057,-4.4011,-4.4009,-4.4007,-4.4005,-4.4065,-4.4069,-4.4072,0,0,0,0,0,0,0,0,0,0,0,0,0,-4.3824,-4.3827,-4.3991,-4.3992,-4.3993,-4.4055,-4.4056,-4.4057,-4.4011,-4.4009,-4.4006,-4.4004,-4.4064,-4.4068,-4.4073,0,0,0,0,0,0,0,0,0,0,0,0,0,-4.3893,-4.3828,-4.3991,-4.3978,-4.3977,-4.4055,-4.4056,-4.4057,-4.4012,-4.4009,-4.4006,-4.4003,-4.4063,-4.4068,-4.4073,-4.4166,0,0,-4.4089,-4.4092,0,0,0,0,0,0,0,0,-4.3889,-4.3899,-4.3979,-4.3979,-4.3978,-4.4022,-4.4019,-4.4094,-4.4013,-4.3999,-4.4005,-4.4001,-4.4053,-4.4059,-4.4078,-4.4169,-4.4172,-4.409,-4.4093,-4.4095,-4.4097,0,0,0,0,0,0,0,-4.3884,-4.3896,-4.4017,-4.398,-4.398,-4.3967,-4.3973,-4.4033,-4.4042,-4.4,-4.3996,-4.4005,-4.4052,-4.4073,-4.4079,-4.4173,-4.409,-4.4094,-4.4097,-4.41,-4.4341,-4.4345,0,0,0,0,0,0,-4.3882,-4.3892,-4.4015,-4.4019,-4.3926,-4.3972,-4.3979,-4.4011,-4.4041,-4.4043,-4.4007,-4.4002,-4.4065,-4.4073,-4.4081,-4.419,-4.4095,-4.41,-4.4103,-4.4338,-4.4342,-4.4346,0,0,0,0,0,0,-4.3878,-4.3893,-4.4012,-4.3955,-4.3969,-4.3978,-4.4014,-4.4014,-4.4034,-4.4047,-4.4048,-4.4027,-4.4063,-4.4073,-4.4145,-4.4192,-4.4102,-4.4107,-4.4334,-4.4339,-4.4344,-4.4411,0,0,0,0,0,0,-4.3874,-4.3892,-4.3929,-4.3956,-4.3972,-4.4078,-4.4017,-4.4017,-4.4044,-4.4038,-4.4066,-4.4067,-4.4061,-4.4138,-4.415,-4.4197,-4.4111,-4.433,-4.4337,-4.4342,-4.4405,-4.4418,-4.4429,0,0,0,0,0,-4.3868,-4.3945,-4.3931,-4.3946,-4.4019,-4.408,-4.4089,-4.4083,-4.4048,-4.4084,-4.4092,-4.4066,-4.4185,-4.4145,-4.4159,-4.4209,-4.4327,-4.4335,-4.4342,-4.4399,-4.4415,-4.4429,0,0,0,0,0,0,-4.3921,-4.3948,-4.3933,-4.4022,-4.4049,-4.4073,-4.4118,-4.41,-4.4137,-4.413,-4.4118,-4.4125,-4.42,-4.4211,-4.4167,-4.4299,-4.425,-4.4261,-4.4289,-4.4304,-4.4316,-4.4311,-4.4116,0,0,0,0,0,-4.3944,-4.3994,-4.4013,-4.4089,-4.4104,-4.4109,-4.4135,-4.4128,-4.4155,-4.4166,-4.418,-4.4206,-4.4248,-4.4277,-4.4317,-4.4406,-4.441,-4.4447,-4.4459,-4.4469,-4.4478,-4.4524,-4.4539,-4.437,-4.437,-4.437,0,0,-4.399,-4.4011,-4.4043,-4.4101,-4.4121,-4.4171,-4.4119,-4.4174,-4.421,-4.4174,-4.4243,-4.4254,-4.4282,-4.4362,-4.4399,-4.4374,-4.4525,-4.4478,-4.4486,-4.4489,-4.4533,-4.4549,-4.4563,-4.4375,-4.4374,-4.4373,0,0,-4.41,-4.4121,-4.4186,-4.4208,-4.424,-4.4243,-4.4258,-4.4284,-4.429,-4.436,-4.4333,-4.4375,-4.445,-4.447,-4.4491,-4.4607,-4.4584,-4.462,-4.4683,-4.4728,-4.4741,-4.4753,-4.4793,-4.4808,-4.4629,-4.463,-4.463,0,-4.4153,-4.4229,-4.4221,-4.4279,-4.4304,-4.4275,-4.4339,-4.436,-4.4403,-4.442,-4.4393,-4.4485,-4.4502,-4.4586,-4.4615,-4.4633,-4.4648,-4.4617,-4.474,-4.4752,-4.4763,-4.4801,-4.4816,-4.4634,-4.4633,-4.4633,-4.4632,0,-4.4291,-4.4344,-4.4392,-4.4436,-4.4467,-4.4527,-4.4527,-4.4559,-4.4548,-4.4553,-4.4622,-4.4642,-4.4685,-4.4704,-4.4694,-4.4787,-4.477,-4.4742,-4.4692,-4.4783,-4.4819,-4.4833,-4.464,-4.4638,-4.4637,-4.4636,0,0,-4.4437,-4.4476,-4.4493,-4.4512,-4.4545,-4.4584,-4.4642,-4.4686,-4.4712,-4.4743,-4.479,-4.4853,-4.4827,-4.485,-4.4841,-4.4881,-4.497,-4.4847,-4.4848,-4.4868,-4.5071,-4.5092,-4.5109,-4.4955,-4.4958,-4.496,-4.5068,0,-4.4547,-4.4651,-4.4645,-4.4741,-4.4788,-4.4761,-4.4811,-4.4835,-4.4841,-4.488,-4.4886,-4.493,-4.4893,-4.4906,-4.4944,-4.4951,-4.501,-4.4943,-4.4997,-4.4999,-4.499,-4.5128,-4.515,-4.5251,-4.5082,-4.5084,-4.5086,0,-4.469,-4.4726,-4.4828,-4.4852,-4.4872,-4.4917,-4.4956,-4.4994,-4.502,-4.5021,-4.5047,-4.5032,-4.5088,-4.5038,-4.5114,-4.5069,-4.509,-4.5096,-4.51,-4.5104,-4.5047,-4.5134,-4.5283,-4.5298,-4.5108,-4.5106,-4.5105,0,-4.4785,-4.4859,-4.4928,-4.4945,-4.4976,-4.5008,-4.5022,-4.5046,-4.5072,-4.5105,-4.5121,-4.516,-4.5181,-4.521,-4.5205,-4.5169,-4.5282,-4.5231,-4.5283,-4.5283,-4.5307,-4.5305,-4.5461,-4.5323,-4.5322,-4.5322,-4.5322,0,-4.4908,-4.497,-4.4971,-4.5014,-4.5082,-4.5074,-4.5142,-4.5152,-4.5172,-4.5215,-4.5193,-4.5233,-4.5224,-4.5263,-4.5259,-4.5322,-4.5332,-4.5333,-4.5331,-4.5334,-4.5334,-4.5348,-4.534,-4.5326,-4.5325,-4.5325,-4.5324,0,-4.5025,-4.5028,-4.5102,-4.5125,-4.5132,-4.5182,-4.52,-4.5239,-4.5243,-4.5297,-4.5309,-4.5314,-4.5359,-4.5357,-4.5407,-4.5405,-4.5482,-4.5472,-4.5473,-4.5471,-4.5522,-4.5517,-4.5691,-4.5712,-4.5561,-4.5562,-4.5564,0,-4.5103,-4.5151,-4.5179,-4.5207,-4.5223,-4.5268,-4.5295,-4.5288,-4.5316,-4.5349,-4.5384,-4.5427,-4.5461,-4.5533,-4.554,-4.5578,-4.5569,-4.5627,-4.5574,-4.5576,-4.5568,-4.5565,-4.5569,-4.5637,-4.5639,-4.564,-4.5641,0,-4.5241,-4.524,-4.5281,-4.5321,-4.5354,-4.5385,-4.5413,-4.5437,-4.5433,-4.5465,-4.5511,-4.5538,-4.5589,-4.5632,-4.5668,-4.568,-4.5659,-4.5658,-4.5671,-4.5675,-4.5674,-4.5674,-4.55,-4.5654,-4.5652,-4.5652,-4.5651,-4.565,-4.534,-4.5381,-4.5407,-4.5452,-4.5473,-4.55,-4.5538,-4.5546,-4.5585,-4.5628,-4.5621,-4.5672,-4.5695,-4.5742,-4.5757,-4.5795,-4.5774,-4.5795,-4.5799,-4.5804,-4.581,-4.5668,-4.5802,-4.5802,-4.5801,-4.5801,-4.5801,0,-4.5476,-4.5492,-4.5533,-4.5574,-4.5609,-4.5588,-4.5618,-4.5648,-4.5694,-4.5718,-4.5752,-4.5804,-4.5845,-4.5855,-4.5893,-4.5922,-4.5914,-4.5932,-4.593,-4.5932,-4.5827,-4.5811,-4.5939,-4.5939,-4.5939,-4.5939,-4.5938,-4.5938,-4.5551,-4.5618,-4.562,-4.5696,-4.571,-4.5762,-4.578,-4.5804,-4.5823,-4.5883,-4.5917,-4.5924,-4.5941,-4.5981,-4.6016,-4.6018,-4.6033,-4.6055,-4.6053,-4.5954,-4.594,-4.5927,-4.5912,-4.6059,-4.6059,-4.6155,-4.6156,-4.6157]}]]